Weather History for Lamoni, IA

Change the Weather History Date:

Wednesday, September 18, 2013

  Actual Average Record
Temperature  
Mean Temperature 78 °F 64 °F  
Max Temperature 89 °F 75 °F 92 °F (1948)
Min Temperature 66 °F 53 °F 38 °F (1991)
Degree Days  
Heating Degree Days 0 3  
Month to date heating degree days 16 30  
Since 1 July heating degree days 25 38  
Cooling Degree Days 13 2  
Month to date cooling degree days 163 74  
Year to date cooling degree days 1032 912  
Growing Degree Days 27 (Base 50)    
Moisture  
Dew Point 66 °F    
Average Humidity 70    
Maximum Humidity 93    
Minimum Humidity 46    
Precipitation  
Precipitation 0.00 in 0.10 in 1.06 in (1965)
Month to date precipitation 2.05 2.31  
Sea Level Pressure  
Sea Level Pressure 29.87 in    
Wind  
Wind Speed 13 mph (South)    
Max Wind Speed 25 mph    
Max Gust Speed 32 mph    
Visibility 8 miles    
Events      
T = Trace of Precipitation, MM = Missing Value Source: NWS Daily Summary

Daily Weather History Graph

Daily Weather History Graph

Search for Another Location

Airport:

Trip Planner

Search our weather history database for the weather conditions in past years. The results will help you decide how hot, cold, wet, or windy it might be!

Date:

Astronomy

Sep. 18, 2013 Rise Set
Actual Time 6:59 AM CDT 7:19 PM CDT
Civil Twilight 6:32 AM CDT 7:46 PM CDT
Nautical Twilight 5:59 AM CDT 8:18 PM CDT
Astronomical Twilight 5:27 AM CDT 8:51 PM CDT
Moon 6:42 PM CDT (9/18) 6:02 AM CDT (9/18)
Length of Visible Light 13h 14m
Length of Day
12h 19m
Waxing Gibbous, 99% of the Moon is Illuminated
Sep 18
Waxing Gibbous
Sep 19
Full
Sep 26
Last Quarter
Oct 4
New
Oct 11
First Quarter

Hourly Weather History & Observations

Time (CDT) Temp. Heat Index Dew Point Humidity Pressure Visibility Wind Dir Wind Speed Gust Speed Precip Events Conditions
12:53 AM 66.0 °F - 64.0 °F 93% 29.99 in 6.0 mi SSE 8.1 mph 16.1 mph N/A   Overcast
1:53 AM 66.0 °F - 64.0 °F 93% 29.98 in 6.0 mi South 9.2 mph 19.6 mph N/A   Overcast
2:53 AM 66.0 °F - 64.0 °F 93% 29.96 in 5.0 mi SSE 12.7 mph 17.3 mph N/A   Overcast
3:53 AM 66.9 °F - 64.9 °F 93% 29.94 in 5.0 mi SSE 8.1 mph - N/A   Overcast
4:53 AM 66.9 °F - 64.9 °F 93% 29.93 in 5.0 mi South 6.9 mph - N/A   Overcast
5:53 AM 66.9 °F - 64.9 °F 93% 29.91 in 4.0 mi South 9.2 mph 16.1 mph N/A   Overcast
6:53 AM 66.9 °F - 64.9 °F 93% 29.91 in 5.0 mi South 16.1 mph 21.9 mph N/A   Overcast
7:53 AM 66.9 °F - 64.9 °F 93% 29.93 in 4.0 mi South 11.5 mph - N/A   Mostly Cloudy
8:05 AM 68.0 °F - 64.4 °F 88% 29.94 in 5.0 mi South 10.4 mph - N/A   Scattered Clouds
8:53 AM 70.0 °F - 64.9 °F 84% 29.92 in 8.0 mi South 11.5 mph 19.6 mph N/A   Partly Cloudy
9:53 AM 75.0 °F - 66.0 °F 73% 29.92 in 10.0 mi South 13.8 mph - N/A   Clear
10:53 AM 78.1 °F - 66.9 °F 68% 29.90 in 10.0 mi South 17.3 mph 21.9 mph N/A   Clear
11:53 AM 82.9 °F 85.8 °F 68.0 °F 60% 29.88 in 10.0 mi South 17.3 mph 23.0 mph N/A   Clear
12:53 PM 82.9 °F 85.4 °F 66.9 °F 58% 29.86 in 10.0 mi South 15.0 mph 21.9 mph N/A   Clear
1:53 PM 84.9 °F 88.2 °F 68.0 °F 57% 29.84 in 10.0 mi South 16.1 mph 20.7 mph N/A   Clear
2:53 PM 88.0 °F 91.4 °F 68.0 °F 51% 29.81 in 10.0 mi South 15.0 mph 23.0 mph N/A   Clear
3:53 PM 88.0 °F 90.3 °F 66.0 °F 48% 29.79 in 10.0 mi South 19.6 mph 29.9 mph N/A   Clear
4:53 PM 88.0 °F 89.6 °F 64.9 °F 46% 29.78 in 10.0 mi South 15.0 mph 26.5 mph N/A   Clear
5:53 PM 84.9 °F 87.6 °F 66.9 °F 55% 29.78 in 10.0 mi South 12.7 mph 24.2 mph N/A   Clear
6:53 PM 84.0 °F 87.0 °F 68.0 °F 58% 29.79 in 10.0 mi South 15.0 mph - N/A   Clear
7:53 PM 81.0 °F 84.1 °F 69.1 °F 67% 29.80 in 10.0 mi South 12.7 mph 24.2 mph N/A   Clear
8:53 PM 79.0 °F - 69.1 °F 72% 29.81 in 10.0 mi South 10.4 mph 21.9 mph N/A   Clear
9:53 PM 78.1 °F - 69.1 °F 74% 29.82 in 10.0 mi South 11.5 mph 24.2 mph N/A   Clear
10:53 PM 75.9 °F - 69.1 °F 79% 29.82 in 10.0 mi South 10.4 mph 23.0 mph N/A   Clear
11:53 PM 75.0 °F - 69.1 °F 82% 29.82 in 9.0 mi South 12.7 mph 19.6 mph N/A   Clear